Terminal Aerodrome Forecast
Issued by NWS

Home | Current Version | Previous Version | Text Only | Print | Product List | Glossary On
Versions: 1 2 3 4 5 6 7 8 9 10 11 12 13 14 15 16 17 18 19 20 21 22 23 24 25 26
000
FTUS41 KOKX 042320
TAFTEB
TAF
KTEB 042320Z 0500/0524 21012G19KT P6SM FEW100
     FM050100 23009KT P6SM FEW100
     FM051100 28006KT P6SM FEW040 BKN100
     FM051500 29005KT P6SM VCSH SCT040 BKN100
     FM051900 23006KT P6SM VCTS BKN040CB=

USA.gov is the U.S. government's official web portal to all federal, state and local government web resources and services.